Year,Month,Day,Hour,Minute,Value (Times are PST for temperature in C)
2008,07,26,00,00,16.60
2008,07,26,00,01,16.60
2008,07,26,00,02,16.60
2008,07,26,00,03,16.50
2008,07,26,00,04,16.50
2008,07,26,00,05,16.40
2008,07,26,00,06,16.40
2008,07,26,00,07,16.40
2008,07,26,00,08,16.40
2008,07,26,00,09,16.40
2008,07,26,00,10,16.40
2008,07,26,00,11,16.30
2008,07,26,00,12,16.30
2008,07,26,00,13,16.30
2008,07,26,00,14,16.30
2008,07,26,00,15,16.30
2008,07,26,00,16,16.30
2008,07,26,00,17,16.30
2008,07,26,00,18,16.30
2008,07,26,00,19,16.30
2008,07,26,00,20,16.30
2008,07,26,00,21,16.30
2008,07,26,00,22,16.30
2008,07,26,00,23,16.30
2008,07,26,00,24,16.20
2008,07,26,00,25,16.20
2008,07,26,00,26,16.20
2008,07,26,00,27,16.20
2008,07,26,00,28,16.20
2008,07,26,00,29,16.20
2008,07,26,00,30,16.20
2008,07,26,00,31,16.20
2008,07,26,00,32,16.20
2008,07,26,00,33,16.20
2008,07,26,00,34,16.20
2008,07,26,00,35,16.20
2008,07,26,00,36,16.20
2008,07,26,00,37,16.20
2008,07,26,00,38,16.30
2008,07,26,00,39,16.30
2008,07,26,00,40,16.30
2008,07,26,00,41,16.40
2008,07,26,00,42,16.40
2008,07,26,00,43,16.50
2008,07,26,00,44,16.50
2008,07,26,00,45,16.60
2008,07,26,00,46,16.60
2008,07,26,00,47,16.70
2008,07,26,00,48,16.70
2008,07,26,00,49,16.80
2008,07,26,00,50,16.80
2008,07,26,00,51,16.80
2008,07,26,00,52,16.90
2008,07,26,00,53,16.90
2008,07,26,00,54,17.00
2008,07,26,00,55,17.00
2008,07,26,00,56,17.10
2008,07,26,00,57,17.10
2008,07,26,00,58,17.20
2008,07,26,00,59,17.20
2008,07,26,01,00,17.20
2008,07,26,01,01,17.30
2008,07,26,01,02,17.30
2008,07,26,01,03,17.30
2008,07,26,01,04,17.20
2008,07,26,01,05,17.20
2008,07,26,01,06,17.20
2008,07,26,01,07,17.20
2008,07,26,01,08,17.10
2008,07,26,01,09,17.10
2008,07,26,01,10,17.10
2008,07,26,01,11,17.00
2008,07,26,01,12,17.00
2008,07,26,01,13,17.00
2008,07,26,01,14,17.00
2008,07,26,01,15,17.00
2008,07,26,01,16,17.00
2008,07,26,01,17,16.90
2008,07,26,01,18,16.90
2008,07,26,01,19,16.90
2008,07,26,01,20,16.80
2008,07,26,01,21,16.80
2008,07,26,01,22,16.80
2008,07,26,01,23,16.70
2008,07,26,01,24,16.70
2008,07,26,01,25,16.70
2008,07,26,01,26,16.70
2008,07,26,01,27,16.70
2008,07,26,01,28,16.70
2008,07,26,01,29,16.70
2008,07,26,01,30,16.70
2008,07,26,01,31,16.60
2008,07,26,01,32,16.60
2008,07,26,01,33,16.60
2008,07,26,01,34,16.70
2008,07,26,01,35,16.70
2008,07,26,01,36,16.70
2008,07,26,01,37,16.70
2008,07,26,01,38,16.70
2008,07,26,01,39,16.70
2008,07,26,01,40,16.70
2008,07,26,01,41,16.70
2008,07,26,01,42,16.70
2008,07,26,01,43,16.70
2008,07,26,01,44,16.70
2008,07,26,01,45,16.70
2008,07,26,01,46,16.80
2008,07,26,01,47,16.70
2008,07,26,01,48,16.80
2008,07,26,01,49,16.80
2008,07,26,01,50,16.80
2008,07,26,01,51,16.80
2008,07,26,01,52,16.80
2008,07,26,01,53,16.80
2008,07,26,01,54,16.80
2008,07,26,01,55,16.80
2008,07,26,01,56,16.90
2008,07,26,01,57,16.90
2008,07,26,01,58,16.90
2008,07,26,01,59,16.90
2008,07,26,02,00,16.90
2008,07,26,02,01,16.90
2008,07,26,02,02,16.90
2008,07,26,02,03,16.90
2008,07,26,02,04,16.90
2008,07,26,02,05,16.90
2008,07,26,02,06,16.90
2008,07,26,02,07,16.90
2008,07,26,02,08,16.90
2008,07,26,02,09,16.90
2008,07,26,02,10,16.90
2008,07,26,02,11,16.90
2008,07,26,02,12,16.90
2008,07,26,02,13,16.90
2008,07,26,02,14,16.90
2008,07,26,02,15,16.90
2008,07,26,02,16,16.90
2008,07,26,02,17,16.90
2008,07,26,02,18,16.90
2008,07,26,02,19,16.90
2008,07,26,02,20,17.00
2008,07,26,02,21,17.00
2008,07,26,02,22,17.00
2008,07,26,02,23,17.00
2008,07,26,02,24,17.00
2008,07,26,02,25,17.00
2008,07,26,02,26,17.00
2008,07,26,02,27,17.00
2008,07,26,02,28,17.00
2008,07,26,02,29,17.10
2008,07,26,02,30,17.00
2008,07,26,02,31,17.10
2008,07,26,02,32,17.10
2008,07,26,02,33,17.10
2008,07,26,02,34,17.00
2008,07,26,02,35,17.00
2008,07,26,02,36,17.10
2008,07,26,02,37,17.10
2008,07,26,02,38,17.10
2008,07,26,02,39,17.10
2008,07,26,02,40,17.10
2008,07,26,02,41,17.10
2008,07,26,02,42,17.10
2008,07,26,02,43,17.10
2008,07,26,02,44,17.10
2008,07,26,02,45,17.10
2008,07,26,02,46,17.10
2008,07,26,02,47,17.10
2008,07,26,02,48,17.10
2008,07,26,02,49,17.10
2008,07,26,02,50,17.10
2008,07,26,02,51,17.10
2008,07,26,02,52,17.10
2008,07,26,02,53,17.10
2008,07,26,02,54,17.10
2008,07,26,02,55,17.00
2008,07,26,02,56,17.00
2008,07,26,02,57,17.00
2008,07,26,02,58,17.00
2008,07,26,02,59,17.00
2008,07,26,03,00,17.00
2008,07,26,03,01,17.00
2008,07,26,03,02,17.00
2008,07,26,03,03,17.00
2008,07,26,03,04,17.00
2008,07,26,03,05,16.90
2008,07,26,03,06,16.90
2008,07,26,03,07,16.90
2008,07,26,03,08,16.90
2008,07,26,03,09,16.90
2008,07,26,03,10,16.90
2008,07,26,03,11,16.90
2008,07,26,03,12,16.90
2008,07,26,03,13,16.90
2008,07,26,03,14,16.90
2008,07,26,03,15,16.90
2008,07,26,03,16,16.90
2008,07,26,03,17,16.90
2008,07,26,03,18,16.90
2008,07,26,03,19,16.80
2008,07,26,03,20,16.80
2008,07,26,03,21,16.80
2008,07,26,03,22,16.80
2008,07,26,03,23,16.80
2008,07,26,03,24,16.80
2008,07,26,03,25,16.80
2008,07,26,03,26,16.80
2008,07,26,03,27,16.80
2008,07,26,03,28,16.80
2008,07,26,03,29,16.80
2008,07,26,03,30,16.80
2008,07,26,03,31,16.80
2008,07,26,03,32,16.80
2008,07,26,03,33,16.80
2008,07,26,03,34,16.80
2008,07,26,03,35,16.80
2008,07,26,03,36,16.80
2008,07,26,03,37,16.80
2008,07,26,03,38,16.80
2008,07,26,03,39,16.80
2008,07,26,03,40,16.80
2008,07,26,03,41,16.80
2008,07,26,03,42,16.80
2008,07,26,03,43,16.70
2008,07,26,03,44,16.70
2008,07,26,03,45,16.70
2008,07,26,03,46,16.70
2008,07,26,03,47,16.70
2008,07,26,03,48,16.70
2008,07,26,03,49,16.60
2008,07,26,03,50,16.60
2008,07,26,03,51,16.60
2008,07,26,03,52,16.60
2008,07,26,03,53,16.60
2008,07,26,03,54,16.60
2008,07,26,03,55,16.60
2008,07,26,03,56,16.60
2008,07,26,03,57,16.60
2008,07,26,03,58,16.60
2008,07,26,03,59,16.60
2008,07,26,04,00,16.60
2008,07,26,04,01,16.50
2008,07,26,04,02,16.50
2008,07,26,04,03,16.40
2008,07,26,04,04,16.40
2008,07,26,04,05,16.40
2008,07,26,04,06,16.40
2008,07,26,04,07,16.30
2008,07,26,04,08,16.30
2008,07,26,04,09,16.20
2008,07,26,04,10,16.20
2008,07,26,04,11,16.20
2008,07,26,04,12,16.20
2008,07,26,04,13,16.20
2008,07,26,04,14,16.20
2008,07,26,04,15,16.20
2008,07,26,04,16,16.20
2008,07,26,04,17,16.20
2008,07,26,04,18,16.20
2008,07,26,04,19,16.20
2008,07,26,04,20,16.20
2008,07,26,04,21,16.20
2008,07,26,04,22,16.20
2008,07,26,04,23,16.20
2008,07,26,04,24,16.20
2008,07,26,04,25,16.20
2008,07,26,04,26,16.10
2008,07,26,04,27,16.10
2008,07,26,04,28,16.00
2008,07,26,04,29,16.00
2008,07,26,04,30,16.00
2008,07,26,04,31,15.90
2008,07,26,04,32,15.80
2008,07,26,04,33,15.80
2008,07,26,04,34,15.80
2008,07,26,04,35,15.80
2008,07,26,04,36,15.80
2008,07,26,04,37,15.80
2008,07,26,04,38,15.80
2008,07,26,04,39,15.80
2008,07,26,04,40,15.80
2008,07,26,04,41,15.70
2008,07,26,04,42,15.70
2008,07,26,04,43,15.70
2008,07,26,04,44,15.70
2008,07,26,04,45,15.70
2008,07,26,04,46,15.70
2008,07,26,04,47,15.70
2008,07,26,04,48,15.70
2008,07,26,04,49,15.70
2008,07,26,04,50,15.60
2008,07,26,04,51,15.60
2008,07,26,04,52,15.60
2008,07,26,04,53,15.50
2008,07,26,04,54,15.50
2008,07,26,04,55,15.40
2008,07,26,04,56,15.40
2008,07,26,04,57,15.40
2008,07,26,04,58,15.40
2008,07,26,04,59,15.40
2008,07,26,05,00,15.30
2008,07,26,05,01,15.30
2008,07,26,05,02,15.20
2008,07,26,05,03,15.20
2008,07,26,05,04,15.20
2008,07,26,05,05,15.20
2008,07,26,05,06,15.20
2008,07,26,05,07,15.20
2008,07,26,05,08,15.20
2008,07,26,05,09,15.20
2008,07,26,05,10,15.20
2008,07,26,05,11,15.20
2008,07,26,05,12,15.20
2008,07,26,05,13,15.20
2008,07,26,05,14,15.20
2008,07,26,05,15,15.20
2008,07,26,05,16,15.20
2008,07,26,05,17,15.20
2008,07,26,05,18,15.10
2008,07,26,05,19,15.10
2008,07,26,05,20,15.10
2008,07,26,05,21,15.10
2008,07,26,05,22,15.00
2008,07,26,05,23,15.00
2008,07,26,05,24,15.00
2008,07,26,05,25,15.00
2008,07,26,05,26,15.00
2008,07,26,05,27,15.00
2008,07,26,05,28,15.00
2008,07,26,05,29,15.00
2008,07,26,05,30,15.00
2008,07,26,05,31,15.00
2008,07,26,05,32,15.00
2008,07,26,05,33,15.00
2008,07,26,05,34,15.00
2008,07,26,05,35,15.00
2008,07,26,05,36,15.10
2008,07,26,05,37,15.10
2008,07,26,05,38,15.10
2008,07,26,05,39,15.20
2008,07,26,05,40,15.20
2008,07,26,05,41,15.20
2008,07,26,05,42,15.20
2008,07,26,05,43,15.20
2008,07,26,05,44,15.20
2008,07,26,05,45,15.20
2008,07,26,05,46,15.20
2008,07,26,05,47,15.20
2008,07,26,05,48,15.30
2008,07,26,05,49,15.30
2008,07,26,05,50,15.30
2008,07,26,05,51,15.30
2008,07,26,05,52,15.30
2008,07,26,05,53,15.30
2008,07,26,05,54,15.30
2008,07,26,05,55,15.20
2008,07,26,05,56,15.20
2008,07,26,05,57,15.20
2008,07,26,05,58,15.10
2008,07,26,05,59,15.10
2008,07,26,06,00,15.00
2008,07,26,06,01,15.00
2008,07,26,06,02,15.00
2008,07,26,06,03,15.00
2008,07,26,06,04,15.00
2008,07,26,06,05,15.00
2008,07,26,06,06,15.00
2008,07,26,06,07,15.00
2008,07,26,06,08,15.00
2008,07,26,06,09,15.00
2008,07,26,06,10,15.00
2008,07,26,06,11,15.00
2008,07,26,06,12,15.00
2008,07,26,06,13,15.00
2008,07,26,06,14,15.00
2008,07,26,06,15,15.00
2008,07,26,06,16,15.00
2008,07,26,06,17,15.00
2008,07,26,06,18,15.00
2008,07,26,06,19,15.00
2008,07,26,06,20,15.00
2008,07,26,06,21,15.00
2008,07,26,06,22,15.00
2008,07,26,06,23,15.00
2008,07,26,06,24,15.00
2008,07,26,06,25,15.00
2008,07,26,06,26,15.00
2008,07,26,06,27,15.00
2008,07,26,06,28,15.00
2008,07,26,06,29,15.00
2008,07,26,06,30,15.00
2008,07,26,06,31,15.00
2008,07,26,06,32,15.10
2008,07,26,06,33,15.10
2008,07,26,06,34,15.20
2008,07,26,06,35,15.20
2008,07,26,06,36,15.20
2008,07,26,06,37,15.20
2008,07,26,06,38,15.20
2008,07,26,06,39,15.20
2008,07,26,06,40,15.20
2008,07,26,06,41,15.20
2008,07,26,06,42,15.20
2008,07,26,06,43,15.20
2008,07,26,06,44,15.20
2008,07,26,06,45,15.20
2008,07,26,06,46,15.20
2008,07,26,06,47,15.20
2008,07,26,06,48,15.20
2008,07,26,06,49,15.20
2008,07,26,06,50,15.30
2008,07,26,06,51,15.30
2008,07,26,06,52,15.30
2008,07,26,06,53,15.30
2008,07,26,06,54,15.30
2008,07,26,06,55,15.30
2008,07,26,06,56,15.30
2008,07,26,06,57,15.40
2008,07,26,06,58,15.40
2008,07,26,06,59,15.40
2008,07,26,07,00,15.40
2008,07,26,07,01,15.40
2008,07,26,07,02,15.40
2008,07,26,07,03,15.40
2008,07,26,07,04,15.40
2008,07,26,07,05,15.50
2008,07,26,07,06,15.50
2008,07,26,07,07,15.60
2008,07,26,07,08,15.60
2008,07,26,07,09,15.70
2008,07,26,07,10,15.70
2008,07,26,07,11,15.70
2008,07,26,07,12,15.80
2008,07,26,07,13,15.80
2008,07,26,07,14,15.90
2008,07,26,07,15,15.90
2008,07,26,07,16,16.00
2008,07,26,07,17,16.10
2008,07,26,07,18,16.20
2008,07,26,07,19,16.20
2008,07,26,07,20,16.30
2008,07,26,07,21,16.30
2008,07,26,07,22,16.40
2008,07,26,07,23,16.40
2008,07,26,07,24,16.50
2008,07,26,07,25,16.50
2008,07,26,07,26,16.60
2008,07,26,07,27,16.60
2008,07,26,07,28,16.70
2008,07,26,07,29,16.70
2008,07,26,07,30,16.70
2008,07,26,07,31,16.80
2008,07,26,07,32,16.80
2008,07,26,07,33,16.80
2008,07,26,07,34,16.80
2008,07,26,07,35,16.90
2008,07,26,07,36,16.90
2008,07,26,07,37,16.90
2008,07,26,07,38,16.90
2008,07,26,07,39,16.90
2008,07,26,07,40,16.90
2008,07,26,07,41,16.90
2008,07,26,07,42,16.90
2008,07,26,07,43,16.90
2008,07,26,07,44,17.00
2008,07,26,07,45,17.00
2008,07,26,07,46,17.00
2008,07,26,07,47,17.00
2008,07,26,07,48,17.00
2008,07,26,07,49,17.00
2008,07,26,07,50,17.00
2008,07,26,07,51,17.00
2008,07,26,07,52,17.00
2008,07,26,07,53,17.00
2008,07,26,07,54,17.00
2008,07,26,07,55,17.00
2008,07,26,07,56,17.00
2008,07,26,07,57,16.90
2008,07,26,07,58,16.90
2008,07,26,07,59,16.90
2008,07,26,08,00,16.90
2008,07,26,08,01,16.90
2008,07,26,08,02,16.90
2008,07,26,08,03,16.90
2008,07,26,08,04,17.00
2008,07,26,08,05,17.00
2008,07,26,08,06,17.00
2008,07,26,08,07,17.00
2008,07,26,08,08,17.10
2008,07,26,08,09,17.10
2008,07,26,08,10,17.10
2008,07,26,08,11,17.10
2008,07,26,08,12,17.10
2008,07,26,08,13,17.10
2008,07,26,08,14,17.10
2008,07,26,08,15,17.10
2008,07,26,08,16,17.10
2008,07,26,08,17,17.20
2008,07,26,08,18,17.20
2008,07,26,08,19,17.20
2008,07,26,08,20,17.20
2008,07,26,08,21,17.20
2008,07,26,08,22,17.20
2008,07,26,08,23,17.20
2008,07,26,08,24,17.20
2008,07,26,08,25,17.20
2008,07,26,08,26,17.20
2008,07,26,08,27,17.20
2008,07,26,08,28,17.10
2008,07,26,08,29,17.10
2008,07,26,08,30,17.10
2008,07,26,08,31,17.10
2008,07,26,08,32,17.10
2008,07,26,08,33,17.10
2008,07,26,08,34,17.10
2008,07,26,08,35,17.10
2008,07,26,08,36,17.10
2008,07,26,08,37,17.10
2008,07,26,08,38,17.10
2008,07,26,08,39,17.00
2008,07,26,08,40,17.00
2008,07,26,08,41,17.00
2008,07,26,08,42,17.00
2008,07,26,08,43,17.00
2008,07,26,08,44,17.00
2008,07,26,08,45,17.00
2008,07,26,08,46,17.00
2008,07,26,08,47,16.90
2008,07,26,08,48,16.90
2008,07,26,08,49,16.90
2008,07,26,08,50,16.90
2008,07,26,08,51,16.90
2008,07,26,08,52,16.90
2008,07,26,08,53,16.90
2008,07,26,08,54,16.90
2008,07,26,08,55,16.90
2008,07,26,08,56,16.90
2008,07,26,08,57,16.90
2008,07,26,08,58,16.90
2008,07,26,08,59,16.90
2008,07,26,09,00,16.90
2008,07,26,09,01,16.90
2008,07,26,09,02,16.90
2008,07,26,09,03,16.90
2008,07,26,09,04,16.90
2008,07,26,09,05,16.90
2008,07,26,09,06,16.90
2008,07,26,09,07,16.90
2008,07,26,09,08,16.90
2008,07,26,09,09,16.90
2008,07,26,09,10,17.00
2008,07,26,09,11,17.00
2008,07,26,09,12,17.10
2008,07,26,09,13,17.10
2008,07,26,09,14,17.10
2008,07,26,09,15,17.10
2008,07,26,09,16,17.20
2008,07,26,09,17,17.20
2008,07,26,09,18,17.20
2008,07,26,09,19,17.20
2008,07,26,09,20,17.20
2008,07,26,09,21,17.20
2008,07,26,09,22,17.20
2008,07,26,09,23,17.20
2008,07,26,09,24,17.20
2008,07,26,09,25,17.30
2008,07,26,09,26,17.30
2008,07,26,09,27,17.30
2008,07,26,09,28,17.40
2008,07,26,09,29,17.40
2008,07,26,09,30,17.40
2008,07,26,09,31,17.40
2008,07,26,09,32,17.40
2008,07,26,09,33,17.50
2008,07,26,09,34,17.40
2008,07,26,09,35,17.40
2008,07,26,09,36,17.40
2008,07,26,09,37,17.40
2008,07,26,09,38,17.40
2008,07,26,09,39,17.40
2008,07,26,09,40,17.40
2008,07,26,09,41,17.30
2008,07,26,09,42,17.30
2008,07,26,09,43,17.30
2008,07,26,09,44,17.30
2008,07,26,09,45,17.30
2008,07,26,09,46,17.30
2008,07,26,09,47,17.40
2008,07,26,09,48,17.40
2008,07,26,09,49,17.40
2008,07,26,09,50,17.40
2008,07,26,09,51,17.40
2008,07,26,09,52,17.40
2008,07,26,09,53,17.40
2008,07,26,09,54,17.40
2008,07,26,09,55,17.40
2008,07,26,09,56,17.50
2008,07,26,09,57,17.50
2008,07,26,09,58,17.60
2008,07,26,09,59,17.60
2008,07,26,10,00,17.70
2008,07,26,10,01,17.70
2008,07,26,10,02,17.80
2008,07,26,10,03,17.80
2008,07,26,10,04,17.90
2008,07,26,10,05,17.90
2008,07,26,10,06,18.00
2008,07,26,10,07,18.00
2008,07,26,10,08,18.10
2008,07,26,10,09,18.10
2008,07,26,10,10,18.10
2008,07,26,10,11,18.20
2008,07,26,10,12,18.20
2008,07,26,10,13,18.20
2008,07,26,10,14,18.20
2008,07,26,10,15,18.30
2008,07,26,10,16,18.30
2008,07,26,10,17,18.20
2008,07,26,10,18,18.20
2008,07,26,10,19,18.20
2008,07,26,10,20,18.20
2008,07,26,10,21,18.20
2008,07,26,10,22,18.20
2008,07,26,10,23,18.20
2008,07,26,10,24,18.20
2008,07,26,10,25,18.20
2008,07,26,10,26,18.20
2008,07,26,10,27,18.20
2008,07,26,10,28,18.10
2008,07,26,10,29,18.10
2008,07,26,10,30,18.10
2008,07,26,10,31,18.10
2008,07,26,10,32,18.10
2008,07,26,10,33,18.10
2008,07,26,10,34,18.10
2008,07,26,10,35,18.10
2008,07,26,10,36,18.10
2008,07,26,10,37,18.10
2008,07,26,10,38,18.10
2008,07,26,10,39,18.20
2008,07,26,10,40,18.20
2008,07,26,10,41,18.10
2008,07,26,10,42,18.10
2008,07,26,10,43,18.10
2008,07,26,10,44,18.00
2008,07,26,10,45,18.00
2008,07,26,10,46,17.90
2008,07,26,10,47,17.90
2008,07,26,10,48,17.80
2008,07,26,10,49,17.80
2008,07,26,10,50,17.80
2008,07,26,10,51,17.80
2008,07,26,10,52,17.80
2008,07,26,10,53,17.80
2008,07,26,10,54,17.80
2008,07,26,10,55,17.80
2008,07,26,10,56,17.80
2008,07,26,10,57,17.90
2008,07,26,10,58,17.90
2008,07,26,10,59,17.90
2008,07,26,11,00,18.00
2008,07,26,11,01,18.00
2008,07,26,11,02,18.00
2008,07,26,11,03,18.10
2008,07,26,11,04,18.10
2008,07,26,11,05,18.10
2008,07,26,11,06,18.10
2008,07,26,11,07,18.20
2008,07,26,11,08,18.20
2008,07,26,11,09,18.10
2008,07,26,11,10,18.10
2008,07,26,11,11,18.00
2008,07,26,11,12,17.90
2008,07,26,11,13,17.90
2008,07,26,11,14,17.90
2008,07,26,11,15,17.80
2008,07,26,11,16,17.80
2008,07,26,11,17,17.80
2008,07,26,11,18,17.70
2008,07,26,11,19,17.70
2008,07,26,11,20,17.70
2008,07,26,11,21,17.60
2008,07,26,11,22,17.60
2008,07,26,11,23,17.50
2008,07,26,11,24,17.50
2008,07,26,11,25,17.40
2008,07,26,11,26,17.40
2008,07,26,11,27,17.40
2008,07,26,11,28,17.40
2008,07,26,11,29,17.40
2008,07,26,11,30,17.40
2008,07,26,11,31,17.40
2008,07,26,11,32,17.40
2008,07,26,11,33,17.40
2008,07,26,11,34,17.40
2008,07,26,11,35,17.40
2008,07,26,11,36,17.40
2008,07,26,11,37,17.40
2008,07,26,11,38,17.40
2008,07,26,11,39,17.50
2008,07,26,11,40,17.50
2008,07,26,11,41,17.50
2008,07,26,11,42,17.50
2008,07,26,11,43,17.50
2008,07,26,11,44,17.50
2008,07,26,11,45,17.50
2008,07,26,11,46,17.50
2008,07,26,11,47,17.50
2008,07,26,11,48,17.50
2008,07,26,11,49,17.50
2008,07,26,11,50,17.50
2008,07,26,11,51,17.50
2008,07,26,11,52,17.50
2008,07,26,11,53,17.60
2008,07,26,11,54,17.60
2008,07,26,11,55,17.60
2008,07,26,11,56,17.60
2008,07,26,11,57,17.60
2008,07,26,11,58,17.70
2008,07,26,11,59,17.70
2008,07,26,12,00,17.80
2008,07,26,12,01,17.80
2008,07,26,12,02,17.90
2008,07,26,12,03,17.90
2008,07,26,12,04,17.90
2008,07,26,12,05,18.00
2008,07,26,12,06,18.00
2008,07,26,12,07,18.00
2008,07,26,12,08,18.00
2008,07,26,12,09,18.00
2008,07,26,12,10,18.10
2008,07,26,12,11,18.10
2008,07,26,12,12,18.10
2008,07,26,12,13,18.10
2008,07,26,12,14,18.10
2008,07,26,12,15,18.10
2008,07,26,12,16,18.10
2008,07,26,12,17,18.20
2008,07,26,12,18,18.20
2008,07,26,12,19,18.20
2008,07,26,12,20,18.20
2008,07,26,12,21,18.20
2008,07,26,12,22,18.20
2008,07,26,12,23,18.20
2008,07,26,12,24,18.00
2008,07,26,12,25,17.90
2008,07,26,12,26,17.90
2008,07,26,12,27,17.80
2008,07,26,12,28,17.80
2008,07,26,12,29,17.80
2008,07,26,12,30,17.90
2008,07,26,12,31,17.90
2008,07,26,12,32,18.00
2008,07,26,12,33,18.00
2008,07,26,12,34,18.00
2008,07,26,12,35,18.00
2008,07,26,12,36,17.90
2008,07,26,12,37,17.90
2008,07,26,12,38,17.90
2008,07,26,12,39,17.80
2008,07,26,12,40,17.80
2008,07,26,12,41,17.80
2008,07,26,12,42,17.90
2008,07,26,12,43,18.00
2008,07,26,12,44,18.10
2008,07,26,12,45,18.10
2008,07,26,12,46,18.10
2008,07,26,12,47,18.10
2008,07,26,12,48,18.20
2008,07,26,12,49,18.20
2008,07,26,12,50,18.10
2008,07,26,12,51,18.10
2008,07,26,12,52,18.10
2008,07,26,12,53,18.00
2008,07,26,12,54,17.90
2008,07,26,12,55,17.80
2008,07,26,12,56,17.70
2008,07,26,12,57,17.70
2008,07,26,12,58,17.60
2008,07,26,12,59,17.50
2008,07,26,13,00,17.50
2008,07,26,13,01,17.40
2008,07,26,13,02,17.40
2008,07,26,13,03,17.40
2008,07,26,13,04,17.40
2008,07,26,13,05,17.40
2008,07,26,13,06,17.40
2008,07,26,13,07,17.40
2008,07,26,13,08,17.40
2008,07,26,13,09,17.30
2008,07,26,13,10,17.30
2008,07,26,13,11,17.20
2008,07,26,13,12,17.20
2008,07,26,13,13,17.10
2008,07,26,13,14,17.10
2008,07,26,13,15,17.10
2008,07,26,13,16,17.10
2008,07,26,13,17,17.10
2008,07,26,13,18,17.20
2008,07,26,13,19,17.20
2008,07,26,13,20,17.20
2008,07,26,13,21,17.20
2008,07,26,13,22,17.20
2008,07,26,13,23,17.20
2008,07,26,13,24,17.20
2008,07,26,13,25,17.30
2008,07,26,13,26,17.30
2008,07,26,13,27,17.40
2008,07,26,13,28,17.40
2008,07,26,13,29,17.40
2008,07,26,13,30,17.50
2008,07,26,13,31,17.50
2008,07,26,13,32,17.60
2008,07,26,13,33,17.60
2008,07,26,13,34,17.60
2008,07,26,13,35,17.60
2008,07,26,13,36,17.50
2008,07,26,13,37,17.50
2008,07,26,13,38,17.40
2008,07,26,13,39,17.40
2008,07,26,13,40,17.40
2008,07,26,13,41,17.30
2008,07,26,13,42,17.30
2008,07,26,13,43,17.30
2008,07,26,13,44,17.30
2008,07,26,13,45,17.30
2008,07,26,13,46,17.30
2008,07,26,13,47,17.30
2008,07,26,13,48,17.30
2008,07,26,13,49,17.30
2008,07,26,13,50,17.30
2008,07,26,13,51,17.30
2008,07,26,13,52,17.40
2008,07,26,13,53,17.40
2008,07,26,13,54,17.40
2008,07,26,13,55,17.50
2008,07,26,13,56,17.60
2008,07,26,13,57,17.60
2008,07,26,13,58,17.60
2008,07,26,13,59,17.70
2008,07,26,14,00,17.80
2008,07,26,14,01,17.80
2008,07,26,14,02,17.90
2008,07,26,14,03,17.90
2008,07,26,14,04,17.90
2008,07,26,14,05,17.90
2008,07,26,14,06,17.90
2008,07,26,14,07,17.90
2008,07,26,14,08,17.90
2008,07,26,14,09,17.90
2008,07,26,14,10,17.90
2008,07,26,14,11,17.90
2008,07,26,14,12,17.90
2008,07,26,14,13,18.00
2008,07,26,14,14,18.00
2008,07,26,14,15,18.10
2008,07,26,14,16,18.10
2008,07,26,14,17,18.10
2008,07,26,14,18,18.10
2008,07,26,14,19,18.10
2008,07,26,14,20,18.20
2008,07,26,14,21,18.20
2008,07,26,14,22,18.30
2008,07,26,14,23,18.30
2008,07,26,14,24,18.40
2008,07,26,14,25,18.40
2008,07,26,14,26,18.50
2008,07,26,14,27,18.50
2008,07,26,14,28,18.60
2008,07,26,14,29,18.70
2008,07,26,14,30,18.70
2008,07,26,14,31,18.80
2008,07,26,14,32,18.90
2008,07,26,14,33,18.90
2008,07,26,14,34,18.90
2008,07,26,14,35,18.90
2008,07,26,14,36,18.80
2008,07,26,14,37,18.70
2008,07,26,14,38,18.60
2008,07,26,14,39,18.50
2008,07,26,14,40,18.40
2008,07,26,14,41,18.30
2008,07,26,14,42,18.30
2008,07,26,14,43,18.30
2008,07,26,14,44,18.30
2008,07,26,14,45,18.20
2008,07,26,14,46,18.20
2008,07,26,14,47,18.20
2008,07,26,14,48,18.20
2008,07,26,14,49,18.30
2008,07,26,14,50,18.30
2008,07,26,14,51,18.30
2008,07,26,14,52,18.30
2008,07,26,14,53,18.30
2008,07,26,14,54,18.30
2008,07,26,14,55,18.30
2008,07,26,14,56,18.30
2008,07,26,14,57,18.20
2008,07,26,14,58,18.20
2008,07,26,14,59,18.20
2008,07,26,15,00,18.10
2008,07,26,15,01,18.10
2008,07,26,15,02,18.10
2008,07,26,15,03,18.10
2008,07,26,15,04,18.10
2008,07,26,15,05,18.10
2008,07,26,15,06,18.00
2008,07,26,15,07,18.00
2008,07,26,15,08,17.90
2008,07,26,15,09,17.80
2008,07,26,15,10,17.70
2008,07,26,15,11,17.60
2008,07,26,15,12,17.60
2008,07,26,15,13,17.50
2008,07,26,15,14,17.50
2008,07,26,15,15,17.50
2008,07,26,15,16,17.50
2008,07,26,15,17,17.50
2008,07,26,15,18,17.60
2008,07,26,15,19,17.60
2008,07,26,15,20,17.60
2008,07,26,15,21,17.60
2008,07,26,15,22,17.60
2008,07,26,15,23,17.60
2008,07,26,15,24,17.60
2008,07,26,15,25,17.70
2008,07,26,15,26,17.70
2008,07,26,15,27,17.70
2008,07,26,15,28,17.70
2008,07,26,15,29,17.80
2008,07,26,15,30,17.80
2008,07,26,15,31,17.80
2008,07,26,15,32,17.80
2008,07,26,15,33,17.80
2008,07,26,15,34,17.80
2008,07,26,15,35,17.80
2008,07,26,15,36,17.80
2008,07,26,15,37,17.80
2008,07,26,15,38,17.70
2008,07,26,15,39,17.70
2008,07,26,15,40,17.70
2008,07,26,15,41,17.70
2008,07,26,15,42,17.70
2008,07,26,15,43,17.70
2008,07,26,15,44,17.70
2008,07,26,15,45,17.70
2008,07,26,15,46,17.80
2008,07,26,15,47,17.80
2008,07,26,15,48,17.70
2008,07,26,15,49,17.70
2008,07,26,15,50,17.70
2008,07,26,15,51,17.70
2008,07,26,15,52,17.70
2008,07,26,15,53,17.60
2008,07,26,15,54,17.60
2008,07,26,15,55,17.60
2008,07,26,15,56,17.60
2008,07,26,15,57,17.60
2008,07,26,15,58,17.60
2008,07,26,15,59,17.50
2008,07,26,16,00,17.50
2008,07,26,16,01,17.50
2008,07,26,16,02,17.40
2008,07,26,16,03,17.40
2008,07,26,16,04,17.40
2008,07,26,16,05,17.40
2008,07,26,16,06,17.40
2008,07,26,16,07,17.40
2008,07,26,16,08,17.40
2008,07,26,16,09,17.30
2008,07,26,16,10,17.30
2008,07,26,16,11,17.30
2008,07,26,16,12,17.30
2008,07,26,16,13,17.30
2008,07,26,16,14,17.30
2008,07,26,16,15,17.30
2008,07,26,16,16,17.30
2008,07,26,16,17,17.30
2008,07,26,16,18,17.30
2008,07,26,16,19,17.30
2008,07,26,16,20,17.30
2008,07,26,16,21,17.30
2008,07,26,16,22,17.30
2008,07,26,16,23,17.30
2008,07,26,16,24,17.20
2008,07,26,16,25,17.20
2008,07,26,16,26,17.20
2008,07,26,16,27,17.20
2008,07,26,16,28,17.20
2008,07,26,16,29,17.20
2008,07,26,16,30,17.20
2008,07,26,16,31,17.20
2008,07,26,16,32,17.20
2008,07,26,16,33,17.30
2008,07,26,16,34,17.20
2008,07,26,16,35,17.20
2008,07,26,16,36,17.20
2008,07,26,16,37,17.30
2008,07,26,16,38,17.30
2008,07,26,16,39,17.30
2008,07,26,16,40,17.30
2008,07,26,16,41,17.30
2008,07,26,16,42,17.30
2008,07,26,16,43,17.40
2008,07,26,16,44,17.40
2008,07,26,16,45,17.40
2008,07,26,16,46,17.40
2008,07,26,16,47,17.40
2008,07,26,16,48,17.40
2008,07,26,16,49,17.40
2008,07,26,16,50,17.40
2008,07,26,16,51,17.40
2008,07,26,16,52,17.40
2008,07,26,16,53,17.40
2008,07,26,16,54,17.50
2008,07,26,16,55,17.50
2008,07,26,16,56,17.50
2008,07,26,16,57,17.50
2008,07,26,16,58,17.50
2008,07,26,16,59,17.60
2008,07,26,17,00,17.50
2008,07,26,17,01,17.50
2008,07,26,17,02,17.50
2008,07,26,17,03,17.40
2008,07,26,17,04,17.40
2008,07,26,17,05,17.40
2008,07,26,17,06,17.30
2008,07,26,17,07,17.30
2008,07,26,17,08,17.30
2008,07,26,17,09,17.30
2008,07,26,17,10,17.30
2008,07,26,17,11,17.30
2008,07,26,17,12,17.30
2008,07,26,17,13,17.30
2008,07,26,17,14,17.30
2008,07,26,17,15,17.30
2008,07,26,17,16,17.30
2008,07,26,17,17,17.30
2008,07,26,17,18,17.30
2008,07,26,17,19,17.30